Other Public Products
Issued by NWS Charleston, SC

Current Version | Previous Version | Graphics & Text | Print | Product List | Glossary On
Versions: 1 2 3 4 5 6 7 8 9 10 11 12 13 14 15 16 17 18 19 20 21 22 23 24 25 26 27 28 29 30 31 32 33 34 35 36 37 38 39 40 41 42 43 44 45 46 47 48 49 50
672
FPUS82 KCHS 202112
OPUCHS

TEST...KCHS/KSAV Gateway Observations...TEST
National Weather Service Charleston SC
400 PM EST MON NOV 20 2017

NOTE: "fair" indicates few or no clouds below 12,000 feet with no
significant weather and/or obstructions to visibility.

SCZ050-WAZ558-NCZ071-TXZ119-213-PAZ071-DCZ001-FLZ074-172-MI076-
NYZ176-178-MAZ016-IL014-TNZ027-NJZ106-GAZ044-MD014-202200-

...Gateway Observations for Charleston International...

CITY           SKY/WX    TMP DP  RH WIND       PRES   REMARKS
Chas Airport   CLOUDY    59  32  36 NE6       30.22S
Seattle        LGT RAIN  48  47  96 SW7       29.79R FOG
Charlotte      PTSUNNY   56  26  31 SW6       30.22R
Dallas DFW     MOSUNNY   66  30  26 S20G25    29.98F
Dallas Love    MOSUNNY   65  28  24 S14G25    30.00F
Philladelphia  MOCLDY    48  22  35 W18       30.13R
Wash National  PTCLDY    52  21  29 SW9       30.18S
Baltimore      PTCLDY    49  22  34 W10       30.16S
Miami          PTSUNNY   79  67  66 NE13G21   30.01S
Detroit        MOCLDY    47  29  49 SW23G32   29.90F
Newark         MOCLDY    46  23  40 W17       30.07R
Laguardia      PTCLDY    47  22  37 W21G26    30.06R
J F K          PTCLDY    46  25  43 W17       30.08R
Boston Logan   PTCLDY    39  19  44 W21G30    29.93R WCI  29
Ft. Lauderdale CLOUDY    77  66  68 NE14      30.01S
Chicago O`Hare PTSUNNY   52  33  48 S22G31    29.76F
Chicago Midway PTSUNNY   54  33  45 SW21G30   29.78F
Houston Bush   MOSUNNY   67  45  45 S10       30.08F
Houston Hobby  MOSUNNY   65  47  52 E10       30.09F
Nashville      PTSUNNY   54  22  28 SE7       30.13F
Atlanta        CLOUDY    58  31  35 SE7       30.16F

$$

GAZ044-118-TXZ119-213-NCZ071-DCZ001-MDZ014-506-PAZ021-071-NJZ106-
NYZ176-178-MAZ106-OHZ011-021-055-MIZ076-KYZ091-ILZ014-INZ047-
MNZ060-ONZ431-202200-

...Gateway Observations for Savannah International...

CITY           SKY/WX    TMP DP  RH WIND       PRES   REMARKS
Savannah Arpt  PTSUNNY   60  44  55 SE9       30.22R
Atlanta        CLOUDY    58  31  35 SE7       30.16F
Charlotte      PTSUNNY   56  26  31 SW6       30.22R
Dallas DFW     MOSUNNY   66  30  26 S20G25    29.98F
Houston Bush   MOSUNNY   67  45  45 S10       30.08F
Wash National  PTCLDY    52  21  29 SW9       30.18S
Wash Dulles    PTCLDY    50  23  34 S9        30.16S
Baltimore      PTCLDY    49  22  34 W10       30.16S
Philadelphia   MOCLDY    48  22  35 W18       30.13R
Newark         MOCLDY    46  23  40 W17       30.07R
Laguardia      PTCLDY    47  22  37 W21G26    30.06R
J F K          PTCLDY    46  25  43 W17       30.08R
Boston         PTCLDY    39  19  44 W21G30    29.93R WCI  29
Pittsburg      PTCLDY    42  22  44 SW15G23   30.07S
Akron          PTCLDY    43  24  47 SW17      30.03F
Cleveland      PTCLDY    47  25  42 SW16      30.00F
Cincinnati     PTSUNNY   47  27  45 S10G22    30.07F
Columbus       SUNNY     45  25  46 S15       30.08F
Detroit        MOCLDY    47  29  49 SW23G32   29.90F
Chicago O`Hare PTSUNNY   52  33  48 S22G31    29.76F
Minneapolis    CLOUDY    46  31  55 SW7       29.46S
Indianapolis   CLOUDY    49  25  39 S16       29.99F
Toronto Canada MOCLDY    43  28  56 SW10G18   29.87F

$$




USA.gov is the U.S. government's official web portal to all federal, state and local government web resources and services.